Regional Weather Roundup
Issued by NWS

Home | Current Version | Previous Version | Text Only | Print | Product List | Glossary Off
Versions: 1 2 3 4 5 6 7 8 9 10 11 12 13 14 15 16 17 18 19 20 21 22 23 24 25 26 27 28 29 30 31 32 33 34 35 36 37 38 39 40 41 42 43 44 45 46 47 48 49 50

000
ASUS43 KLOT 011800
RWRIL

ILLINOIS REGIONAL WEATHER ROUNDUP
NATIONAL WEATHER SERVICE CHICAGO/ROMEOVILLE IL
100 PM CDT MON SEP 01 2014

NOTE: "FAIR" INDICATES FEW OR NO CLOUDS BELOW 12,000 FEET WITH NO
SIGNIFICANT WEATHER AND/OR OBSTRUCTIONS TO VISIBILITY.

* THESE STATIONS ARE NOT UNDER NWS QUALITY CONTROL. THEY ALSO MAY NOT
  REPORT WEATHER SUCH AS PRECIPITATION OR FOG.

ILZ001-002-007-009-015-016-024-011900-
NORTHWEST ILLINOIS

CITY           SKY/WX    TMP DP  RH WIND       PRES   REMARKS
MOLINE         SUNNY     80  64  58 W15G25    29.78S HX  82
6HR MIN TEMP:  67; 6HR MAX TEMP:  81;

STERLING*      CLOUDY    81  66  61 W14       29.78F HX  83
SAVANNA*       MOSUNNY   79  65  61 W9        29.76S HX  81
$$

ILZ003-004-008-010-011-017-018-011900-
NORTH CENTRAL ILLINOIS

CITY           SKY/WX    TMP DP  RH WIND       PRES   REMARKS
ROCKFORD       PTSUNNY   78  64  61 W15       29.78S HX  80
6HR MIN TEMP:  71; 6HR MAX TEMP:  79; 6HR PCP: TRACE;

$$

ILZ005-006-012>014-019>023-011900-
NORTHEAST ILLINOIS

CITY           SKY/WX    TMP DP  RH WIND       PRES   REMARKS
CHICAGO-OHARE  PTSUNNY   79  65  62 SW14G22   29.77S HX  81
6HR MIN TEMP:  74; 6HR MAX TEMP:  80; 6HR PCP:  0.09;

CHICAGO-MIDWAY PTSUNNY   81  70  69 W16G23    29.78S HX  84
6HR MIN TEMP:  76; 6HR MAX TEMP:  81; 6HR PCP: TRACE;

AURORA         MOSUNNY   79  65  62 W12G22    29.79F HX  81
6HR MIN TEMP:  74; 6HR MAX TEMP:  80; 6HR PCP: TRACE;

WAUKEGAN       CLOUDY    78  67  68 SW9G20    29.74F HX  80
6HR MIN TEMP:  72; 6HR MAX TEMP:  79; 6HR PCP:  0.10;

DUPAGE AIRPORT MOSUNNY   80  66  62 SW15G23   29.78S HX  82
6HR MIN TEMP:  73; 6HR MAX TEMP:  81; 6HR PCP:  0.01;

WHEELING       CLOUDY    81  68  64 W13G21    29.77S HX  84
6HR MIN TEMP:  75; 6HR MAX TEMP:  81; 6HR PCP:  0.04;

NORTHERLY ISL    N/A     78  66  66 W10         N/A  HX  80
$$

LMZ740>746-011900-
SOUTHERN LAKE MICHIGAN

STATION/POSITION SKY/WX   TEMP    WIND        PRES    VSBY  WAVE
                          AIR SEA DIR/SP/G                  HT/PER
                          (F)     (DEG/KT/KT) (MB)    (MI)  (FT/S)
SOUTHERN BUOY              71 69  230/ 12/ 14 1007.8R
WAUKEGAN HARBOR            77     250/ 14/ 19   N/A
HARRISON CRIB              75     230/ 10/ 18   N/A
BURNHAM HARBOR             79     240/ 12/ 12   N/A
CALUMET HARBOR             79     230/ 10/ 17 1007.3F
MICHIGAN CITY              74     190/ 13/ 16   N/A
MICHIGAN CITY 6N           74 72  210/ 10/ 12   N/A           3/ 3
ST. JOSEPH                 72 72  210/ 19/ 25   N/A           4/ 4
$$

ILZ025>027-034>036-040-047-049-050-058-095>099-011900-
WEST-CENTRAL ILLINOIS

CITY           SKY/WX    TMP DP  RH WIND       PRES   REMARKS
QUINCY         PTSUNNY   76  64  66 W17G24    29.87S
MACOMB*        CLOUDY    76  66  71 W12G17    29.87S
$$

ILZ028>032-037-038-041>044-048-051>054-059>061-011900-
CENTRAL ILLINOIS

CITY           SKY/WX    TMP DP  RH WIND       PRES   REMARKS
PONTIAC        MOSUNNY   82  70  65 W10       29.81S HX  86
DECATUR        CLOUDY    82  66  58 W16G26    29.86R HX  84
PEORIA         PTSUNNY   81  66  60 W9        29.83S HX  83
6HR MIN TEMP:  74; 6HR MAX TEMP:  81;

SPRINGFIELD    CLOUDY    82  66  58 W14G22    29.85S HX  84
6HR MIN TEMP:  74; 6HR MAX TEMP:  82;

TAYLORVILLE    NOT AVBL
$$

ILZ033-039-045-046-055>057-062-063-011900-
EAST-CENTRAL ILLINOIS

CITY           SKY/WX    TMP DP  RH WIND       PRES   REMARKS
CHAMPAIGN      PTSUNNY   82  70  66 SW15      29.85R HX  86
MATTOON        CLOUDY    80  71  74 SW16G26   29.87R HX  84
$$

ILZ079-100>102-011900-
SOUTHWEST ILLINOIS

CITY           SKY/WX    TMP DP  RH WIND       PRES   REMARKS
BELLEVILLE     CLOUDY    80  67  65 VRB7      29.90R HX  82
CAHOKIA*       CLOUDY    80  65  59 VRB6      29.90R HX  82
$$

ILZ064>066-069>071-074>076-080>082-084>086-088>090-092>094-011900-
SOUTH-CENTRAL ILLINOIS

CITY           SKY/WX    TMP DP  RH WIND       PRES   REMARKS
CARBONDALE     CLOUDY    82  71  69 S17G23    29.88F HX  86
6HR MIN TEMP:  75; 6HR MAX TEMP:  82;

MARION         CLOUDY    81  73  78 MISG      29.87F HX  85
MT. VERNON     CLOUDY    82  72  69 SW17G23   29.90R HX  87
SALEM*         PTSUNNY   83  72  69 SW16      29.90R HX  88
$$

ILZ067-068-072-073-078-083-087-091-011900-
SOUTHEAST ILLINOIS

CITY           SKY/WX    TMP DP  RH WIND       PRES   REMARKS
LAWRENCEVILLE  CLOUDY    82  73  74 SW20G26   29.89R HX  87
$$

ABBREVIATIONS USED IN REMARKS
   TC - TEMPERATURE IN CELSIUS
  WCI - WIND CHILL INDEX
   HX - HEAT INDEX
  VSB - VISIBILITY
$$




USA.gov is the U.S. government's official web portal to all federal, state and local government web resources and services.